TimeNZST,TemperatureF,Dew PointF,Humidity,Sea Level PressureIn,VisibilityMPH,Wind Direction,Wind SpeedMPH,Gust SpeedMPH,PrecipitationIn,Events,Conditions,WindDirDegrees,DateUTC
12:00 AM,46.4,28.4,50,29.36,-9999.0,NW,3.5,-,N/A,,Clear,320,2013-05-26 12:00:00
1:00 AM,42.8,28.4,57,29.36,-9999.0,NE,3.5,-,N/A,,Clear,50,2013-05-26 13:00:00
2:00 AM,46.4,28.4,50,29.33,-9999.0,ENE,3.5,-,N/A,,Clear,60,2013-05-26 14:00:00
3:00 AM,50.0,30.2,47,29.30,-9999.0,NW,10.4,-,N/A,,Clear,320,2013-05-26 15:00:00
4:00 AM,46.4,33.8,62,29.30,-9999.0,NW,4.6,-,N/A,,Clear,320,2013-05-26 16:00:00
5:00 AM,46.4,39.2,76,29.27,6.2,NNW,11.5,-,N/A,,Partly Cloudy,340,2013-05-26 17:00:00
6:00 AM,42.8,37.4,81,29.27,6.2,NNW,10.4,-,N/A,,Partly Cloudy,340,2013-05-26 18:00:00
7:00 AM,37.4,32.0,81,29.30,6.2,SW,5.8,-,N/A,,Partly Cloudy,220,2013-05-26 19:00:00
8:00 AM,42.8,39.2,87,29.36,6.2,SW,11.5,-,N/A,,Partly Cloudy,220,2013-05-26 20:00:00
9:00 AM,44.6,33.8,66,29.39,6.2,SW,13.8,-,N/A,,Partly Cloudy,230,2013-05-26 21:00:00
10:00 AM,46.4,35.6,66,29.39,-9999.0,WSW,6.9,-,N/A,,Clear,250,2013-05-26 22:00:00
11:00 AM,46.4,35.6,66,29.42,-9999.0,NW,3.5,-,N/A,,Clear,310,2013-05-26 23:00:00
12:00 PM,46.4,35.6,66,29.39,-9999.0,NNW,1.2,-,N/A,,Clear,340,2013-05-27 00:00:00
1:00 PM,48.2,37.4,66,29.36,-9999.0,NE,2.3,-,N/A,,Clear,50,2013-05-27 01:00:00
2:00 PM,48.2,37.4,66,29.36,-9999.0,NNE,5.8,-,N/A,,Clear,20,2013-05-27 02:00:00
3:00 PM,48.2,37.4,66,29.33,-9999.0,ENE,5.8,-,N/A,,Clear,70,2013-05-27 03:00:00
4:00 PM,48.2,37.4,66,29.33,-9999.0,SSE,3.5,-,N/A,,Clear,150,2013-05-27 04:00:00
5:00 PM,46.4,39.2,76,29.33,6.2,SSE,3.5,-,N/A,,Partly Cloudy,160,2013-05-27 05:00:00
6:00 PM,44.6,39.2,81,29.36,6.2,SSW,2.3,-,N/A,Rain,Light Rain Showers,210,2013-05-27 06:00:00
7:00 PM,44.6,39.2,81,29.36,6.2,West,5.8,-,N/A,Rain,Light Rain Showers,260,2013-05-27 07:00:00
8:00 PM,44.6,39.2,81,29.42,6.2,SW,5.8,-,N/A,,Mostly Cloudy,230,2013-05-27 08:00:00
9:00 PM,39.2,35.6,87,29.44,6.2,SSW,20.7,-,N/A,Rain,Light Rain Showers,210,2013-05-27 09:00:00
10:00 PM,39.2,35.6,87,29.47,6.2,SW,13.8,-,N/A,Rain,Light Rain Showers,230,2013-05-27 10:00:00
11:00 PM,39.2,35.6,87,29.47,6.2,South,6.9,-,N/A,,Mostly Cloudy,190,2013-05-27 11:00:00